Location: Goettingen
(51.5300°N, 9.9433°E)
Time: 11:36:24
(UTC+02:00)

ISS - Pass Details

Date: 19 May 2025
Orbit: 416 x 419 km, 51.6° (Epoch: 18 May)

Event Time Altitude Azimuth Distance (km) Brightness Sun altitude
Rises 00:39:12 0° 282° (WNW) 2,361 0.3 -18.2°
Reaches altitude 10° 00:41:40 10° 265° (W) 1,494 -0.9 -18.3°
Enters shadow 00:42:36 15° 251° (WSW) 1,237 -1.5 -18.3°
